Time,TemperatureF,DewpointF,PressureIn,WindDirection,WindDirectionDegrees,WindSpeedMPH,WindSpeedGustMPH,Humidity,HourlyPrecipIn,Conditions,Clouds,dailyrainin,SoftwareType,DateUTC
2013-03-21 00:00:00,19.4,14.2,30.05,NW,323,11.0,15.0,80,0.00,,---,0.00,VWS V14.01,2013-03-21 04:00:00,
2013-03-21 00:02:00,19.4,14.0,30.05,NNW,340,7.0,13.0,79,0.00,,---,0.00,VWS V14.01,2013-03-21 04:02:00,
2013-03-21 00:07:00,19.4,13.4,30.05,NNW,336,5.0,13.0,77,0.00,,---,0.00,VWS V14.01,2013-03-21 04:07:00,
2013-03-21 00:12:00,19.5,13.2,30.05,NW,319,3.0,13.0,76,0.00,,---,0.00,VWS V14.01,2013-03-21 04:12:00,
2013-03-21 00:17:00,19.6,12.7,30.05,WNW,297,4.0,13.0,74,0.00,,---,0.00,VWS V14.01,2013-03-21 04:17:00,
2013-03-21 00:22:00,19.6,12.4,30.05,NW,319,4.0,13.0,73,0.00,,---,0.00,VWS V14.01,2013-03-21 04:22:00,
2013-03-21 00:27:00,19.7,11.8,30.05,NW,307,11.0,13.0,71,0.00,,---,0.00,VWS V14.01,2013-03-21 04:27:00,
2013-03-21 00:30:00,18.7,15.5,30.05,WNW,295,5.0,14.0,87,0.00,,---,0.00,VWS V14.01,2013-03-21 04:30:00,
2013-03-21 00:32:00,19.8,11.6,30.05,NW,319,4.0,6.0,70,0.00,,---,0.00,VWS V14.01,2013-03-21 04:32:00,
2013-03-21 00:37:00,19.7,11.5,30.05,NW,319,5.0,9.0,70,0.00,,---,0.00,VWS V14.01,2013-03-21 04:37:00,
2013-03-21 00:42:00,19.7,11.2,30.04,WNW,292,4.0,9.0,69,0.00,,---,0.00,VWS V14.01,2013-03-21 04:42:00,
2013-03-21 00:47:00,19.8,11.3,30.04,NW,321,8.0,9.0,69,0.00,,---,0.00,VWS V14.01,2013-03-21 04:47:00,
2013-03-21 00:52:00,19.8,11.9,30.04,NNW,327,3.0,9.0,71,0.00,,---,0.00,VWS V14.01,2013-03-21 04:52:00,
2013-03-21 00:57:00,19.8,12.9,30.04,WNW,294,3.0,9.0,74,0.00,,---,0.00,VWS V14.01,2013-03-21 04:57:00,
2013-03-21 01:00:00,19.8,13.5,30.04,NW,315,6.0,9.0,76,0.00,,---,0.00,VWS V14.01,2013-03-21 05:00:00,
2013-03-21 01:02:00,19.8,13.5,30.04,NW,314,9.0,12.0,76,0.00,,---,0.00,VWS V14.01,2013-03-21 05:02:00,
2013-03-21 01:07:00,19.7,13.7,30.04,NW,304,4.0,12.0,77,0.00,,---,0.00,VWS V14.01,2013-03-21 05:07:00,
2013-03-21 01:12:00,19.5,14.4,30.04,WNW,284,4.0,12.0,80,0.00,,---,0.00,VWS V14.01,2013-03-21 05:12:00,
2013-03-21 01:17:00,19.2,14.9,30.04,NW,314,5.0,12.0,83,0.00,,---,0.00,VWS V14.01,2013-03-21 05:17:00,
2013-03-21 01:22:00,19.0,15.0,30.04,WSW,252,1.0,12.0,84,0.00,,---,0.00,VWS V14.01,2013-03-21 05:22:00,
2013-03-21 01:27:00,19.0,14.7,30.04,NNW,338,4.0,12.0,83,0.00,,---,0.00,VWS V14.01,2013-03-21 05:27:00,
2013-03-21 01:30:00,19.2,14.9,30.04,WNW,293,5.0,12.0,83,0.00,,---,0.00,VWS V14.01,2013-03-21 05:30:00,
2013-03-21 01:32:00,19.2,14.6,30.04,WSW,247,2.0,5.0,82,0.00,,---,0.00,VWS V14.01,2013-03-21 05:32:00,
2013-03-21 01:37:00,19.2,14.9,30.04,West,260,3.0,6.0,83,0.00,,---,0.00,VWS V14.01,2013-03-21 05:37:00,
2013-03-21 01:42:00,19.4,14.5,30.04,WNW,283,7.0,9.0,81,0.00,,---,0.00,VWS V14.01,2013-03-21 05:42:00,
2013-03-21 01:47:00,19.6,14.4,30.04,WNW,302,7.0,9.0,80,0.00,,---,0.00,VWS V14.01,2013-03-21 05:47:00,
2013-03-21 01:52:00,19.6,14.4,30.04,WSW,248,4.0,9.0,80,0.00,,---,0.00,VWS V14.01,2013-03-21 05:52:00,
2013-03-21 01:57:00,19.6,14.4,30.03,WNW,300,2.0,9.0,80,0.00,,---,0.00,VWS V14.01,2013-03-21 05:57:00,
2013-03-21 02:00:00,19.6,14.4,30.03,West,281,2.0,9.0,80,0.00,,---,0.00,VWS V14.01,2013-03-21 06:00:00,
2013-03-21 02:02:00,19.6,14.4,30.03,WNW,301,5.0,7.0,80,0.00,,---,0.00,VWS V14.01,2013-03-21 06:02:00,
2013-03-21 02:07:00,19.7,14.5,30.04,NW,324,5.0,17.0,80,0.00,,---,0.00,VWS V14.01,2013-03-21 06:07:00,
2013-03-21 02:12:00,19.2,14.9,30.03,NW,311,5.0,17.0,83,0.00,,---,0.00,VWS V14.01,2013-03-21 06:12:00,
2013-03-21 02:17:00,19.0,15.2,30.03,NNW,327,3.0,17.0,85,0.00,,---,0.00,VWS V14.01,2013-03-21 06:17:00,
2013-03-21 02:22:00,18.9,14.9,30.03,West,281,4.0,17.0,84,0.00,,---,0.00,VWS V14.01,2013-03-21 06:22:00,
2013-03-21 02:27:00,18.7,14.9,30.03,NW,309,2.0,17.0,85,0.00,,---,0.00,VWS V14.01,2013-03-21 06:27:00,
2013-03-21 02:30:00,18.6,14.6,30.03,NW,320,2.0,17.0,84,0.00,,---,0.00,VWS V14.01,2013-03-21 06:30:00,
2013-03-21 02:32:00,18.6,14.6,30.03,NW,309,2.0,2.0,84,0.00,,---,0.00,VWS V14.01,2013-03-21 06:32:00,
2013-03-21 02:38:00,18.6,14.3,30.03,NW,315,3.0,5.0,83,0.00,,---,0.00,VWS V14.01,2013-03-21 06:38:00,
2013-03-21 02:43:00,18.8,14.5,30.03,WNW,301,4.0,7.0,83,0.00,,---,0.00,VWS V14.01,2013-03-21 06:43:00,
2013-03-21 02:48:00,19.0,14.7,30.03,NW,322,5.0,11.0,83,0.00,,---,0.00,VWS V14.01,2013-03-21 06:48:00,
2013-03-21 02:53:00,19.4,14.5,30.04,North,1,6.0,11.0,81,0.00,,---,0.00,VWS V14.01,2013-03-21 06:53:00,
2013-03-21 02:58:00,19.3,15.0,30.03,WNW,290,12.0,13.0,83,0.00,,---,0.00,VWS V14.01,2013-03-21 06:58:00,
2013-03-21 03:00:00,19.1,15.3,30.04,NW,321,5.0,13.0,85,0.00,,---,0.00,VWS V14.01,2013-03-21 07:00:00,
2013-03-21 03:03:00,19.0,15.8,30.03,NW,308,7.0,8.0,87,0.00,,---,0.00,VWS V14.01,2013-03-21 07:03:00,
2013-03-21 03:08:00,18.9,15.9,30.03,NW,326,5.0,9.0,88,0.00,,---,0.00,VWS V14.01,2013-03-21 07:08:00,
2013-03-21 03:13:00,18.8,15.8,30.03,NW,312,3.0,11.0,88,0.00,,---,0.00,VWS V14.01,2013-03-21 07:13:00,
2013-03-21 03:18:00,18.8,16.1,30.03,NW,326,2.0,11.0,89,0.00,,---,0.00,VWS V14.01,2013-03-21 07:18:00,
2013-03-21 03:23:00,18.8,16.1,30.03,NW,312,3.0,11.0,89,0.00,,---,0.00,VWS V14.01,2013-03-21 07:23:00,
2013-03-21 03:28:00,18.8,16.4,30.03,NW,319,4.0,11.0,90,0.00,,---,0.00,VWS V14.01,2013-03-21 07:28:00,
2013-03-21 03:30:00,18.9,16.5,30.03,WNW,296,5.0,11.0,90,0.00,,---,0.00,VWS V14.01,2013-03-21 07:30:00,
2013-03-21 03:33:00,18.9,16.2,30.03,NW,309,10.0,11.0,89,0.00,,---,0.00,VWS V14.01,2013-03-21 07:33:00,
2013-03-21 03:38:00,19.0,16.3,30.03,NW,325,4.0,11.0,89,0.00,,---,0.00,VWS V14.01,2013-03-21 07:38:00,
2013-03-21 03:43:00,19.0,16.6,30.02,NW,314,3.0,11.0,90,0.00,,---,0.00,VWS V14.01,2013-03-21 07:43:00,
2013-03-21 03:48:00,18.9,16.7,30.02,WNW,290,1.0,11.0,91,0.00,,---,0.00,VWS V14.01,2013-03-21 07:48:00,
2013-03-21 03:53:00,18.9,16.7,30.02,NW,312,2.0,11.0,91,0.00,,---,0.00,VWS V14.01,2013-03-21 07:53:00,
2013-03-21 03:58:00,19.0,17.1,30.02,NW,326,4.0,11.0,92,0.00,,---,0.00,VWS V14.01,2013-03-21 07:58:00,
2013-03-21 04:00:00,19.0,16.8,30.02,NW,324,3.0,11.0,91,0.00,,---,0.00,VWS V14.01,2013-03-21 08:00:00,
2013-03-21 04:03:00,19.0,16.8,30.02,WNW,302,0.0,6.0,91,0.00,,---,0.00,VWS V14.01,2013-03-21 08:03:00,
2013-03-21 04:08:00,18.9,16.7,30.02,WNW,294,1.0,6.0,91,0.00,,---,0.00,VWS V14.01,2013-03-21 08:08:00,
2013-03-21 04:13:00,18.9,16.7,30.02,WNW,295,1.0,6.0,91,0.00,,---,0.00,VWS V14.01,2013-03-21 08:13:00,
2013-03-21 04:18:00,19.0,16.6,30.02,WNW,290,3.0,6.0,90,0.00,,---,0.00,VWS V14.01,2013-03-21 08:18:00,
2013-03-21 04:23:00,19.3,16.6,30.02,NW,304,8.0,13.0,89,0.00,,---,0.00,VWS V14.01,2013-03-21 08:23:00,
2013-03-21 04:28:00,19.3,16.9,30.01,West,269,4.0,13.0,90,0.00,,---,0.00,VWS V14.01,2013-03-21 08:28:00,
2013-03-21 04:30:00,19.3,16.9,30.01,NW,326,1.0,13.0,90,0.00,,---,0.00,VWS V14.01,2013-03-21 08:30:00,
2013-03-21 04:33:00,19.4,17.0,30.01,NW,314,3.0,8.0,90,0.00,,---,0.00,VWS V14.01,2013-03-21 08:33:00,
2013-03-21 04:38:00,19.4,16.7,30.01,WNW,295,4.0,8.0,89,0.00,,---,0.00,VWS V14.01,2013-03-21 08:38:00,
2013-03-21 04:43:00,19.6,16.6,30.01,WNW,283,2.0,8.0,88,0.00,,---,0.00,VWS V14.01,2013-03-21 08:43:00,
2013-03-21 04:48:00,19.7,16.7,30.01,NW,316,3.0,8.0,88,0.00,,---,0.00,VWS V14.01,2013-03-21 08:48:00,
2013-03-21 04:53:00,19.7,17.0,30.01,NW,323,5.0,10.0,89,0.00,,---,0.00,VWS V14.01,2013-03-21 08:53:00,
2013-03-21 04:58:00,19.7,17.2,30.01,NW,309,5.0,10.0,90,0.00,,---,0.00,VWS V14.01,2013-03-21 08:58:00,
2013-03-21 05:00:00,19.0,16.8,30.02,NW,324,3.0,11.0,91,0.00,,---,0.00,VWS V14.01,2013-03-21 09:00:00,
2013-03-21 05:03:00,19.7,17.5,30.01,NW,318,2.0,9.0,91,0.00,,---,0.00,VWS V14.01,2013-03-21 09:03:00,
2013-03-21 05:08:00,19.7,17.8,30.01,WNW,297,1.0,9.0,92,0.00,,---,0.00,VWS V14.01,2013-03-21 09:08:00,
2013-03-21 05:13:00,19.6,17.7,30.01,WNW,303,4.0,9.0,92,0.00,,---,0.00,VWS V14.01,2013-03-21 09:13:00,
2013-03-21 05:18:00,19.7,17.8,30.00,West,281,4.0,9.0,92,0.00,,---,0.00,VWS V14.01,2013-03-21 09:18:00,
2013-03-21 05:23:00,19.7,18.0,30.00,WNW,283,4.0,9.0,93,0.00,,---,0.00,VWS V14.01,2013-03-21 09:23:00,
2013-03-21 05:28:00,19.8,18.1,30.00,SW,236,5.0,9.0,93,0.00,,---,0.00,VWS V14.01,2013-03-21 09:28:00,
2013-03-21 05:30:00,19.8,18.1,30.01,NW,315,5.0,9.0,93,0.00,,---,0.00,VWS V14.01,2013-03-21 09:30:00,
2013-03-21 05:33:00,19.9,18.2,30.00,WNW,300,3.0,8.0,93,0.00,,---,0.00,VWS V14.01,2013-03-21 09:33:00,
2013-03-21 05:38:00,20.1,18.6,30.00,West,276,3.0,9.0,94,0.00,,---,0.00,VWS V14.01,2013-03-21 09:38:00,
2013-03-21 05:43:00,20.3,18.9,30.00,WNW,290,6.0,9.0,94,0.00,,---,0.00,VWS V14.01,2013-03-21 09:43:00,
2013-03-21 05:48:00,20.4,19.0,30.00,North,352,2.0,9.0,94,0.00,,---,0.00,VWS V14.01,2013-03-21 09:48:00,
2013-03-21 05:53:00,20.5,19.0,30.00,West,269,3.0,9.0,94,0.00,,---,0.00,VWS V14.01,2013-03-21 09:53:00,
2013-03-21 05:58:00,20.6,19.1,30.00,NW,307,6.0,9.0,94,0.00,,---,0.00,VWS V14.01,2013-03-21 09:58:00,
2013-03-21 06:00:00,19.7,17.5,30.01,WNW,283,4.0,10.0,91,0.00,,---,0.00,VWS V14.01,2013-03-21 10:00:00,
2013-03-21 06:03:00,20.8,19.1,30.01,NW,321,4.0,4.0,93,0.00,,---,0.00,VWS V14.01,2013-03-21 10:03:00,
2013-03-21 06:08:00,21.1,19.4,30.01,NNW,341,6.0,13.0,93,0.00,,---,0.00,VWS V14.01,2013-03-21 10:08:00,
2013-03-21 06:13:00,21.2,19.2,30.01,NW,318,5.0,13.0,92,0.00,,---,0.00,VWS V14.01,2013-03-21 10:13:00,
2013-03-21 06:18:00,21.2,19.2,30.01,NW,307,6.0,13.0,92,0.00,,---,0.00,VWS V14.01,2013-03-21 10:18:00,
2013-03-21 06:23:00,21.3,19.1,30.01,WNW,303,4.0,13.0,91,0.00,,---,0.00,VWS V14.01,2013-03-21 10:23:00,
2013-03-21 06:28:00,21.4,18.9,30.01,WNW,297,6.0,13.0,90,0.00,,---,0.00,VWS V14.01,2013-03-21 10:28:00,
2013-03-21 06:30:00,21.5,18.8,30.01,WNW,288,6.0,13.0,89,0.00,,---,0.00,VWS V14.01,2013-03-21 10:30:00,
2013-03-21 06:33:00,21.6,18.9,30.00,NW,305,5.0,8.0,89,0.00,,---,0.00,VWS V14.01,2013-03-21 10:33:00,
2013-03-21 06:38:00,21.9,18.6,30.01,NW,316,3.0,10.0,87,0.00,,---,0.00,VWS V14.01,2013-03-21 10:38:00,
2013-03-21 06:43:00,22.0,18.5,30.01,NW,319,10.0,12.0,86,0.00,,---,0.00,VWS V14.01,2013-03-21 10:43:00,
2013-03-21 06:48:00,22.3,18.2,30.01,NNW,329,4.0,12.0,84,0.00,,---,0.00,VWS V14.01,2013-03-21 10:48:00,
2013-03-21 06:53:00,22.4,18.3,30.01,WNW,290,12.0,14.0,84,0.00,,---,0.00,VWS V14.01,2013-03-21 10:53:00,
2013-03-21 06:58:00,22.5,18.4,30.01,WNW,302,7.0,15.0,84,0.00,,---,0.00,VWS V14.01,2013-03-21 10:58:00,
2013-03-21 07:00:00,22.5,18.4,30.01,WNW,285,4.0,15.0,84,0.00,,---,0.00,VWS V14.01,2013-03-21 11:00:00,
2013-03-21 07:03:00,22.5,18.4,30.01,WNW,297,5.0,16.0,84,0.00,,---,0.00,VWS V14.01,2013-03-21 11:03:00,
2013-03-21 07:08:00,22.5,18.1,30.01,NW,318,6.0,16.0,83,0.00,,---,0.00,VWS V14.01,2013-03-21 11:08:00,
2013-03-21 07:13:00,22.5,18.4,30.01,NW,308,13.0,16.0,84,0.00,,---,0.00,VWS V14.01,2013-03-21 11:13:00,
2013-03-21 07:18:00,22.5,18.4,30.02,SW,235,5.0,16.0,84,0.00,,---,0.00,VWS V14.01,2013-03-21 11:18:00,
2013-03-21 07:23:00,22.6,18.5,30.01,WNW,294,4.0,16.0,84,0.00,,---,0.00,VWS V14.01,2013-03-21 11:23:00,
2013-03-21 07:28:00,22.7,18.3,30.02,NW,318,6.0,16.0,83,0.00,,---,0.00,VWS V14.01,2013-03-21 11:28:00,
2013-03-21 07:30:00,22.8,18.4,30.01,WNW,300,6.0,16.0,83,0.00,,---,0.00,VWS V14.01,2013-03-21 11:30:00,
2013-03-21 07:33:00,22.8,18.4,30.02,WNW,285,6.0,12.0,83,0.00,,---,0.00,VWS V14.01,2013-03-21 11:33:00,
2013-03-21 07:38:00,22.8,18.4,30.02,WNW,292,11.0,12.0,83,0.00,,---,0.00,VWS V14.01,2013-03-21 11:38:00,
2013-03-21 07:43:00,22.9,18.5,30.02,NW,311,6.0,12.0,83,0.00,,---,0.00,VWS V14.01,2013-03-21 11:43:00,
2013-03-21 07:48:00,23.0,18.3,30.02,WNW,285,10.0,16.0,82,0.00,,---,0.00,VWS V14.01,2013-03-21 11:48:00,
2013-03-21 07:53:00,23.2,18.2,30.02,NNW,329,10.0,16.0,81,0.00,,---,0.00,VWS V14.01,2013-03-21 11:53:00,
2013-03-21 07:58:00,23.3,18.1,30.02,NW,322,7.0,16.0,80,0.00,,---,0.00,VWS V14.01,2013-03-21 11:58:00,
2013-03-21 08:00:00,22.5,18.4,30.01,WNW,285,4.0,15.0,84,0.00,,---,0.00,VWS V14.01,2013-03-21 12:00:00,
2013-03-21 08:03:00,23.3,17.8,30.02,NNW,338,8.0,14.0,79,0.00,,---,0.00,VWS V14.01,2013-03-21 12:03:00,
2013-03-21 08:08:00,23.3,17.2,30.02,NNW,333,9.0,14.0,77,0.00,,---,0.00,VWS V14.01,2013-03-21 12:08:00,
2013-03-21 08:13:00,23.2,16.8,30.02,NNE,12,12.0,14.0,76,0.00,,---,0.00,VWS V14.01,2013-03-21 12:13:00,
2013-03-21 08:18:00,22.9,16.2,30.03,WNW,294,9.0,14.0,75,0.00,,---,0.00,VWS V14.01,2013-03-21 12:18:00,
2013-03-21 08:23:00,22.8,15.8,30.03,NW,304,3.0,14.0,74,0.00,,---,0.00,VWS V14.01,2013-03-21 12:23:00,
2013-03-21 08:28:00,22.6,15.9,30.03,NW,325,4.0,14.0,75,0.00,,---,0.00,VWS V14.01,2013-03-21 12:28:00,
2013-03-21 08:30:00,22.6,15.9,30.03,NW,312,6.0,14.0,75,0.00,,---,0.00,VWS V14.01,2013-03-21 12:30:00,
2013-03-21 08:33:00,22.6,15.9,30.03,North,349,3.0,7.0,75,0.00,,---,0.00,VWS V14.01,2013-03-21 12:33:00,
2013-03-21 08:38:00,22.8,15.8,30.03,NW,322,7.0,11.0,74,0.00,,---,0.00,VWS V14.01,2013-03-21 12:38:00,
2013-03-21 08:44:00,23.0,16.0,30.03,NW,308,10.0,11.0,74,0.00,,---,0.00,VWS V14.01,2013-03-21 12:44:00,
2013-03-21 08:49:00,23.3,16.2,30.03,WNW,301,5.0,11.0,74,0.00,,---,0.00,VWS V14.01,2013-03-21 12:49:00,
2013-03-21 08:54:00,23.3,16.2,30.03,NW,318,7.0,11.0,74,0.00,,---,0.00,VWS V14.01,2013-03-21 12:54:00,
2013-03-21 08:59:00,23.4,16.4,30.03,NW,311,7.0,11.0,74,0.00,,---,0.00,VWS V14.01,2013-03-21 12:59:00,
2013-03-21 09:00:00,23.5,16.5,30.03,NW,307,6.0,13.0,74,0.00,,---,0.00,VWS V14.01,2013-03-21 13:00:00,
2013-03-21 09:04:00,23.6,16.5,30.03,WNW,297,6.0,11.0,74,0.00,,---,0.00,VWS V14.01,2013-03-21 13:04:00,
2013-03-21 09:09:00,23.8,16.4,30.03,NW,325,7.0,12.0,73,0.00,,---,0.00,VWS V14.01,2013-03-21 13:09:00,
2013-03-21 09:14:00,23.9,16.5,30.03,NW,305,5.0,13.0,73,0.00,,---,0.00,VWS V14.01,2013-03-21 13:14:00,
2013-03-21 09:19:00,24.0,16.6,30.03,NNW,344,7.0,13.0,73,0.00,,---,0.00,VWS V14.01,2013-03-21 13:19:00,
2013-03-21 09:24:00,23.9,16.5,30.03,NW,315,11.0,13.0,73,0.00,,---,0.00,VWS V14.01,2013-03-21 13:24:00,
2013-03-21 09:29:00,24.0,16.6,30.03,West,279,9.0,13.0,73,0.00,,---,0.00,VWS V14.01,2013-03-21 13:29:00,
2013-03-21 09:30:00,22.6,15.9,30.03,NW,312,6.0,14.0,75,0.00,,---,0.00,VWS V14.01,2013-03-21 13:30:00,
2013-03-21 09:34:00,24.0,16.9,30.03,NW,311,5.0,14.0,74,0.00,,---,0.00,VWS V14.01,2013-03-21 13:34:00,
2013-03-21 09:39:00,24.1,17.6,30.03,NW,314,6.0,17.0,76,0.00,,---,0.00,VWS V14.01,2013-03-21 13:39:00,
2013-03-21 09:44:00,24.1,18.0,30.03,West,268,11.0,17.0,77,0.00,,---,0.00,VWS V14.01,2013-03-21 13:44:00,
2013-03-21 09:49:00,24.2,18.3,30.03,West,281,8.0,17.0,78,0.00,,---,0.00,VWS V14.01,2013-03-21 13:49:00,
2013-03-21 09:54:00,24.2,17.4,30.03,NW,310,8.0,17.0,75,0.00,,---,0.00,VWS V14.01,2013-03-21 13:54:00,
2013-03-21 09:59:00,24.0,17.5,30.03,NNW,344,6.0,17.0,76,0.00,,---,0.00,VWS V14.01,2013-03-21 13:59:00,
2013-03-21 10:00:00,24.0,17.5,30.03,NW,311,14.0,17.0,76,0.00,,---,0.00,VWS V14.01,2013-03-21 14:00:00,
2013-03-21 10:04:00,23.9,17.5,30.03,WNW,294,9.0,14.0,76,0.00,,---,0.00,VWS V14.01,2013-03-21 14:04:00,
2013-03-21 10:09:00,23.8,17.0,30.03,NW,321,7.0,16.0,75,0.00,,---,0.00,VWS V14.01,2013-03-21 14:09:00,
2013-03-21 10:14:00,23.7,17.0,30.04,NW,314,10.0,16.0,75,0.00,,---,0.00,VWS V14.01,2013-03-21 14:14:00,
2013-03-21 10:19:00,23.7,17.0,30.04,WNW,291,3.0,16.0,75,0.00,,---,0.00,VWS V14.01,2013-03-21 14:19:00,
2013-03-21 10:24:00,23.7,16.6,30.04,NW,304,8.0,16.0,74,0.00,,---,0.00,VWS V14.01,2013-03-21 14:24:00,
2013-03-21 10:29:00,23.7,16.6,30.04,NW,307,4.0,16.0,74,0.00,,---,0.00,VWS V14.01,2013-03-21 14:29:00,
2013-03-21 10:30:00,23.8,16.7,30.04,WNW,295,4.0,16.0,74,0.00,,---,0.00,VWS V14.01,2013-03-21 14:30:00,
2013-03-21 10:34:00,23.9,16.8,30.04,NW,318,12.0,13.0,74,0.00,,---,0.00,VWS V14.01,2013-03-21 14:34:00,
2013-03-21 10:39:00,24.1,16.7,30.05,WNW,297,7.0,15.0,73,0.00,,---,0.00,VWS V14.01,2013-03-21 14:39:00,
2013-03-21 10:44:00,24.3,16.6,30.05,NW,323,4.0,17.0,72,0.00,,---,0.00,VWS V14.01,2013-03-21 14:44:00,
2013-03-21 10:49:00,24.2,16.8,30.05,WSW,255,4.0,17.0,73,0.00,,---,0.00,VWS V14.01,2013-03-21 14:49:00,
2013-03-21 10:54:00,24.2,17.1,30.05,West,270,10.0,17.0,74,0.00,,---,0.00,VWS V14.01,2013-03-21 14:54:00,
2013-03-21 10:59:00,24.0,16.6,30.05,NW,322,9.0,17.0,73,0.00,,---,0.00,VWS V14.01,2013-03-21 14:59:00,
2013-03-21 11:00:00,23.9,16.5,30.05,WNW,302,10.0,17.0,73,0.00,,---,0.00,VWS V14.01,2013-03-21 15:00:00,
2013-03-21 11:09:00,23.9,16.8,30.05,NW,312,7.0,17.0,74,0.00,,---,0.00,VWS V14.01,2013-03-21 15:09:00,
2013-03-21 11:14:00,24.1,17.0,30.05,NW,304,10.0,17.0,74,0.00,,---,0.00,VWS V14.01,2013-03-21 15:14:00,
2013-03-21 11:19:00,24.1,17.0,30.05,WNW,302,13.0,17.0,74,0.00,,---,0.00,VWS V14.01,2013-03-21 15:19:00,
2013-03-21 11:24:00,24.1,17.0,30.05,WNW,298,5.0,17.0,74,0.00,,---,0.00,VWS V14.01,2013-03-21 15:24:00,
2013-03-21 11:29:00,24.2,17.1,30.05,WSW,252,4.0,17.0,74,0.00,,---,0.00,VWS V14.01,2013-03-21 15:29:00,
2013-03-21 11:30:00,24.3,17.2,30.06,WNW,295,7.0,17.0,74,0.00,,---,0.00,VWS V14.01,2013-03-21 15:30:00,
2013-03-21 11:34:00,24.4,17.3,30.06,NW,307,7.0,13.0,74,0.00,,---,0.00,VWS V14.01,2013-03-21 15:34:00,
2013-03-21 11:39:00,24.6,17.5,30.06,NW,311,6.0,13.0,74,0.00,,---,0.00,VWS V14.01,2013-03-21 15:39:00,
2013-03-21 11:44:00,24.7,17.6,30.06,West,266,6.0,13.0,74,0.00,,---,0.00,VWS V14.01,2013-03-21 15:44:00,
2013-03-21 11:49:00,24.5,17.4,30.05,West,263,4.0,15.0,74,0.00,,---,0.00,VWS V14.01,2013-03-21 15:49:00,
2013-03-21 11:54:00,24.6,18.1,30.06,West,276,10.0,15.0,76,0.00,,---,0.00,VWS V14.01,2013-03-21 15:54:00,
2013-03-21 11:59:00,24.6,17.8,30.06,NNW,328,7.0,15.0,75,0.00,,---,0.00,VWS V14.01,2013-03-21 15:59:00,
2013-03-21 12:00:00,24.7,17.9,30.06,NW,311,9.0,15.0,75,0.00,,---,0.00,VWS V14.01,2013-03-21 16:00:00,
2013-03-21 12:04:00,24.5,17.7,30.06,WNW,293,7.0,19.0,75,0.00,,---,0.00,VWS V14.01,2013-03-21 16:04:00,
2013-03-21 12:09:00,24.6,17.8,30.06,NW,304,4.0,19.0,75,0.00,,---,0.00,VWS V14.01,2013-03-21 16:09:00,
2013-03-21 12:14:00,25.0,18.2,30.06,NW,314,10.0,19.0,75,0.00,,---,0.00,VWS V14.01,2013-03-21 16:14:00,
2013-03-21 12:19:00,25.0,17.9,30.06,WNW,283,6.0,19.0,74,0.00,,---,0.00,VWS V14.01,2013-03-21 16:19:00,
2013-03-21 12:24:00,24.9,17.8,30.07,WSW,249,3.0,19.0,74,0.00,,---,0.00,VWS V14.01,2013-03-21 16:24:00,
2013-03-21 12:29:00,25.1,17.7,30.07,WNW,292,9.0,19.0,73,0.00,,---,0.00,VWS V14.01,2013-03-21 16:29:00,
2013-03-21 12:30:00,24.3,17.2,30.06,WNW,295,7.0,17.0,74,0.00,,---,0.00,VWS V14.01,2013-03-21 16:30:00,
2013-03-21 12:34:00,25.1,18.0,30.07,WNW,292,11.0,14.0,74,0.00,,---,0.00,VWS V14.01,2013-03-21 16:34:00,
2013-03-21 12:39:00,24.9,17.8,30.07,NW,314,12.0,14.0,74,0.00,,---,0.00,VWS V14.01,2013-03-21 16:39:00,
2013-03-21 12:44:00,25.0,18.2,30.07,South,184,3.0,14.0,75,0.00,,---,0.00,VWS V14.01,2013-03-21 16:44:00,
2013-03-21 12:49:00,25.0,17.6,30.08,West,278,6.0,14.0,73,0.00,,---,0.00,VWS V14.01,2013-03-21 16:49:00,
2013-03-21 12:54:00,25.0,17.3,30.08,NNW,333,6.0,14.0,72,0.00,,---,0.00,VWS V14.01,2013-03-21 16:54:00,
2013-03-21 12:59:00,25.0,17.3,30.07,NNW,338,3.0,14.0,72,0.00,,---,0.00,VWS V14.01,2013-03-21 16:59:00,
2013-03-21 13:00:00,24.7,17.9,30.06,NW,311,9.0,15.0,75,0.00,,---,0.00,VWS V14.01,2013-03-21 17:00:00,
2013-03-21 13:04:00,25.2,17.1,30.07,West,281,6.0,12.0,71,0.00,,---,0.00,VWS V14.01,2013-03-21 17:04:00,
2013-03-21 13:09:00,25.6,17.5,30.07,WNW,287,6.0,12.0,71,0.00,,---,0.00,VWS V14.01,2013-03-21 17:09:00,
2013-03-21 13:14:00,25.7,17.6,30.08,West,276,11.0,13.0,71,0.00,,---,0.00,VWS V14.01,2013-03-21 17:14:00,
2013-03-21 13:19:00,25.5,17.4,30.07,West,264,9.0,13.0,71,0.00,,---,0.00,VWS V14.01,2013-03-21 17:19:00,
2013-03-21 13:24:00,25.5,17.4,30.08,NW,314,9.0,20.0,71,0.00,,---,0.00,VWS V14.01,2013-03-21 17:24:00,
2013-03-21 13:29:00,25.7,17.6,30.08,WNW,300,8.0,20.0,71,0.00,,---,0.00,VWS V14.01,2013-03-21 17:29:00,
2013-03-21 13:30:00,25.0,17.6,30.07,WNW,298,7.0,19.0,73,0.00,,---,0.00,VWS V14.01,2013-03-21 17:30:00,
2013-03-21 13:34:00,25.9,18.1,30.08,WNW,291,8.0,10.0,72,0.00,,---,0.00,VWS V14.01,2013-03-21 17:34:00,
2013-03-21 13:39:00,25.8,17.7,30.08,NNW,333,4.0,12.0,71,0.00,,---,0.00,VWS V14.01,2013-03-21 17:39:00,
2013-03-21 13:44:00,26.3,18.2,30.08,WNW,283,4.0,12.0,71,0.00,,---,0.00,VWS V14.01,2013-03-21 17:44:00,
2013-03-21 13:49:00,26.1,18.3,30.08,WNW,294,7.0,15.0,72,0.00,,---,0.00,VWS V14.01,2013-03-21 17:49:00,
2013-03-21 13:54:00,26.1,18.3,30.08,NW,325,14.0,15.0,72,0.00,,---,0.00,VWS V14.01,2013-03-21 17:54:00,
2013-03-21 13:59:00,26.3,18.5,30.08,NW,314,10.0,15.0,72,0.00,,---,0.00,VWS V14.01,2013-03-21 17:59:00,
2013-03-21 14:00:00,26.2,18.1,30.08,NW,325,7.0,15.0,71,0.00,,---,0.00,VWS V14.01,2013-03-21 18:00:00,
2013-03-21 14:04:00,25.9,17.8,30.07,NW,314,11.0,14.0,71,0.00,,---,0.00,VWS V14.01,2013-03-21 18:04:00,
2013-03-21 14:09:00,26.3,17.5,30.07,WNW,296,7.0,14.0,69,0.00,,---,0.00,VWS V14.01,2013-03-21 18:09:00,
2013-03-21 14:14:00,26.8,18.3,30.07,WNW,302,9.0,14.0,70,0.00,,---,0.00,VWS V14.01,2013-03-21 18:14:00,
2013-03-21 14:19:00,26.8,18.3,30.07,NW,305,8.0,14.0,70,0.00,,---,0.00,VWS V14.01,2013-03-21 18:19:00,
2013-03-21 14:24:00,26.9,18.1,30.06,WNW,301,6.0,16.0,69,0.00,,---,0.00,VWS V14.01,2013-03-21 18:24:00,
2013-03-21 14:29:00,27.1,18.3,30.06,West,281,5.0,16.0,69,0.00,,---,0.00,VWS V14.01,2013-03-21 18:29:00,
2013-03-21 14:30:00,27.2,18.7,30.06,WNW,302,11.0,16.0,70,0.00,,---,0.00,VWS V14.01,2013-03-21 18:30:00,
2013-03-21 14:34:00,26.9,18.1,30.06,NW,319,7.0,13.0,69,0.00,,---,0.00,VWS V14.01,2013-03-21 18:34:00,
2013-03-21 14:40:00,27.3,19.1,30.06,WSW,248,10.0,16.0,71,0.00,,---,0.00,VWS V14.01,2013-03-21 18:40:00,
2013-03-21 14:45:00,27.0,18.2,30.06,WNW,289,5.0,16.0,69,0.00,,---,0.00,VWS V14.01,2013-03-21 18:45:00,
2013-03-21 14:50:00,27.1,18.6,30.06,NW,314,11.0,16.0,70,0.00,,---,0.00,VWS V14.01,2013-03-21 18:50:00,
2013-03-21 14:55:00,27.0,18.9,30.06,NW,317,12.0,17.0,71,0.00,,---,0.00,VWS V14.01,2013-03-21 18:55:00,
2013-03-21 15:00:00,26.9,18.8,30.06,NW,320,6.0,17.0,71,0.00,,---,0.00,VWS V14.01,2013-03-21 19:00:00,
2013-03-21 15:05:00,26.6,17.8,30.06,NW,323,8.0,13.0,69,0.00,,---,0.00,VWS V14.01,2013-03-21 19:05:00,
2013-03-21 15:10:00,27.5,19.7,30.06,NW,317,5.0,13.0,72,0.00,,---,0.00,VWS V14.01,2013-03-21 19:10:00,
2013-03-21 15:15:00,27.7,19.2,30.06,NW,316,9.0,13.0,70,0.00,,---,0.00,VWS V14.01,2013-03-21 19:15:00,
2013-03-21 15:20:00,27.3,19.1,30.06,WNW,300,8.0,16.0,71,0.00,,---,0.00,VWS V14.01,2013-03-21 19:20:00,
2013-03-21 15:25:00,27.3,19.5,30.05,NW,314,8.0,18.0,72,0.00,,---,0.00,VWS V14.01,2013-03-21 19:25:00,
2013-03-21 15:30:00,27.0,19.5,30.05,NW,309,5.0,18.0,73,0.00,,---,0.00,VWS V14.01,2013-03-21 19:30:00,
2013-03-21 15:35:00,27.2,19.4,30.05,West,280,4.0,14.0,72,0.00,,---,0.00,VWS V14.01,2013-03-21 19:35:00,
2013-03-21 15:40:00,27.4,20.2,30.05,NW,318,11.0,15.0,74,0.00,,---,0.00,VWS V14.01,2013-03-21 19:40:00,
2013-03-21 15:45:00,27.8,20.3,30.05,WNW,295,8.0,15.0,73,0.00,,---,0.00,VWS V14.01,2013-03-21 19:45:00,
2013-03-21 15:50:00,27.8,20.3,30.05,WNW,290,6.0,15.0,73,0.00,,---,0.00,VWS V14.01,2013-03-21 19:50:00,
2013-03-21 15:55:00,27.8,19.3,30.05,NW,325,7.0,15.0,70,0.00,,---,0.00,VWS V14.01,2013-03-21 19:55:00,
2013-03-21 16:00:00,27.3,18.8,30.05,NW,316,8.0,15.0,70,0.00,,---,0.00,VWS V14.01,2013-03-21 20:00:00,
2013-03-21 16:05:00,27.4,18.9,30.05,WNW,297,8.0,13.0,70,0.00,,---,0.00,VWS V14.01,2013-03-21 20:05:00,
2013-03-21 16:10:00,27.2,19.1,30.05,WNW,303,4.0,13.0,71,0.00,,---,0.00,VWS V14.01,2013-03-21 20:10:00,
2013-03-21 16:15:00,27.4,19.2,30.05,WNW,302,8.0,13.0,71,0.00,,---,0.00,VWS V14.01,2013-03-21 20:15:00,
2013-03-21 16:20:00,27.7,19.2,30.05,NNW,332,11.0,16.0,70,0.00,,---,0.00,VWS V14.01,2013-03-21 20:20:00,
2013-03-21 16:25:00,28.0,18.5,30.05,NNW,329,6.0,16.0,67,0.00,,---,0.00,VWS V14.01,2013-03-21 20:25:00,
2013-03-21 16:30:00,28.5,19.6,30.05,NW,319,6.0,16.0,69,0.00,,---,0.00,VWS V14.01,2013-03-21 20:30:00,
2013-03-21 16:35:00,29.6,21.4,30.05,NW,326,13.0,13.0,71,0.00,,---,0.00,VWS V14.01,2013-03-21 20:35:00,
2013-03-21 16:40:00,29.4,19.5,30.05,NW,326,9.0,17.0,66,0.00,,---,0.00,VWS V14.01,2013-03-21 20:40:00,
2013-03-21 16:45:00,28.9,19.0,30.05,NNW,333,13.0,20.0,66,0.00,,---,0.00,VWS V14.01,2013-03-21 20:45:00,
2013-03-21 16:50:00,28.9,19.7,30.05,West,259,5.0,20.0,68,0.00,,---,0.00,VWS V14.01,2013-03-21 20:50:00,
2013-03-21 16:55:00,28.8,19.2,30.05,NW,307,8.0,20.0,67,0.00,,---,0.00,VWS V14.01,2013-03-21 20:55:00,
2013-03-21 17:00:00,28.9,19.3,30.05,West,259,4.0,20.0,67,0.00,,---,0.00,VWS V14.01,2013-03-21 21:00:00,
2013-03-21 17:05:00,29.0,19.1,30.05,NNW,338,17.0,17.0,66,0.00,,---,0.00,VWS V14.01,2013-03-21 21:05:00,
2013-03-21 17:10:00,28.7,19.1,30.05,NNE,21,10.0,18.0,67,0.00,,---,0.00,VWS V14.01,2013-03-21 21:10:00,
2013-03-21 17:15:00,29.0,19.4,30.05,WNW,301,6.0,19.0,67,0.00,,---,0.00,VWS V14.01,2013-03-21 21:15:00,
2013-03-21 17:20:00,28.3,18.8,30.05,NW,311,13.0,19.0,67,0.00,,---,0.00,VWS V14.01,2013-03-21 21:20:00,
2013-03-21 17:25:00,28.1,18.2,30.05,WSW,248,8.0,19.0,66,0.00,,---,0.00,VWS V14.01,2013-03-21 21:25:00,
2013-03-21 17:30:00,28.7,19.5,30.05,WNW,298,7.0,19.0,68,0.00,,---,0.00,VWS V14.01,2013-03-21 21:30:00,
2013-03-21 17:35:00,28.5,18.6,30.05,NNW,330,7.0,16.0,66,0.00,,---,0.00,VWS V14.01,2013-03-21 21:35:00,
2013-03-21 17:40:00,28.5,18.6,30.05,North,352,13.0,17.0,66,0.00,,---,0.00,VWS V14.01,2013-03-21 21:40:00,
2013-03-21 17:45:00,28.8,19.6,30.05,WNW,299,4.0,17.0,68,0.00,,---,0.00,VWS V14.01,2013-03-21 21:45:00,
2013-03-21 17:50:00,28.6,18.3,30.05,NW,321,10.0,17.0,65,0.00,,---,0.00,VWS V14.01,2013-03-21 21:50:00,
2013-03-21 17:55:00,28.6,18.7,30.05,NW,320,10.0,17.0,66,0.00,,---,0.00,VWS V14.01,2013-03-21 21:55:00,
2013-03-21 18:00:00,28.6,18.7,30.05,NW,321,9.0,17.0,66,0.00,,---,0.00,VWS V14.01,2013-03-21 22:00:00,
2013-03-21 18:05:00,28.6,18.0,30.05,North,360,8.0,13.0,64,0.00,,---,0.00,VWS V14.01,2013-03-21 22:05:00,
2013-03-21 18:10:00,28.7,18.8,30.05,NW,321,8.0,13.0,66,0.00,,---,0.00,VWS V14.01,2013-03-21 22:10:00,
2013-03-21 18:15:00,28.5,17.9,30.05,NW,323,9.0,15.0,64,0.00,,---,0.00,VWS V14.01,2013-03-21 22:15:00,
2013-03-21 18:20:00,28.7,18.4,30.05,NW,321,11.0,15.0,65,0.00,,---,0.00,VWS V14.01,2013-03-21 22:20:00,
2013-03-21 18:25:00,28.5,17.5,30.05,NW,325,5.0,15.0,63,0.00,,---,0.00,VWS V14.01,2013-03-21 22:25:00,
2013-03-21 18:30:00,28.6,18.0,30.04,NW,309,10.0,15.0,64,0.00,,---,0.00,VWS V14.01,2013-03-21 22:30:00,
2013-03-21 18:35:00,28.6,18.0,30.04,NW,312,4.0,14.0,64,0.00,,---,0.00,VWS V14.01,2013-03-21 22:35:00,
2013-03-21 18:40:00,28.7,19.1,30.04,NNW,346,5.0,14.0,67,0.00,,---,0.00,VWS V14.01,2013-03-21 22:40:00,
2013-03-21 18:45:00,28.6,18.3,30.04,WNW,296,5.0,14.0,65,0.00,,---,0.00,VWS V14.01,2013-03-21 22:45:00,
2013-03-21 18:50:00,28.3,17.3,30.04,NW,323,7.0,15.0,63,0.00,,---,0.00,VWS V14.01,2013-03-21 22:50:00,
2013-03-21 18:55:00,28.3,17.7,30.04,NNW,327,5.0,15.0,64,0.00,,---,0.00,VWS V14.01,2013-03-21 22:55:00,
2013-03-21 19:00:00,28.3,18.1,30.04,WNW,290,7.0,9.0,65,0.00,,---,0.00,VWS V14.01,2013-03-21 23:00:00,
2013-03-21 19:05:00,28.3,18.1,30.03,NW,314,4.0,13.0,65,0.00,,---,0.00,VWS V14.01,2013-03-21 23:05:00,
2013-03-21 19:10:00,28.3,18.4,30.03,NNW,332,6.0,13.0,66,0.00,,---,0.00,VWS V14.01,2013-03-21 23:10:00,
2013-03-21 19:15:00,28.3,18.8,30.04,NW,314,4.0,13.0,67,0.00,,---,0.00,VWS V14.01,2013-03-21 23:15:00,
2013-03-21 19:20:00,28.2,18.3,30.04,NNW,335,8.0,13.0,66,0.00,,---,0.00,VWS V14.01,2013-03-21 23:20:00,
2013-03-21 19:25:00,28.1,18.2,30.04,NW,322,8.0,13.0,66,0.00,,---,0.00,VWS V14.01,2013-03-21 23:25:00,
2013-03-21 19:30:00,27.7,17.8,30.04,North,352,8.0,8.0,66,0.00,,---,0.00,VWS V14.01,2013-03-21 23:30:00,
2013-03-21 19:35:00,27.5,18.3,30.04,NNW,330,7.0,12.0,68,0.00,,---,0.00,VWS V14.01,2013-03-21 23:35:00,
2013-03-21 19:41:00,27.3,18.5,30.04,NNW,345,6.0,12.0,69,0.00,,---,0.00,VWS V14.01,2013-03-21 23:41:00,
2013-03-21 19:46:00,27.1,18.3,30.04,NW,325,11.0,12.0,69,0.00,,---,0.00,VWS V14.01,2013-03-21 23:46:00,
2013-03-21 19:51:00,26.9,18.4,30.04,NW,318,9.0,12.0,70,0.00,,---,0.00,VWS V14.01,2013-03-21 23:51:00,
2013-03-21 19:56:00,26.7,18.2,30.04,NW,304,5.0,12.0,70,0.00,,---,0.00,VWS V14.01,2013-03-21 23:56:00,
2013-03-21 20:00:00,28.3,18.1,30.03,WNW,296,9.0,15.0,65,0.00,,---,0.00,VWS V14.01,2013-03-22 00:00:00,
2013-03-21 20:01:00,26.7,18.2,30.04,NW,318,4.0,6.0,70,0.00,,---,0.00,VWS V14.01,2013-03-22 00:01:00,
2013-03-21 20:06:00,26.5,18.0,30.04,NW,319,4.0,7.0,70,0.00,,---,0.00,VWS V14.01,2013-03-22 00:06:00,
2013-03-21 20:11:00,26.4,18.0,30.04,NW,307,5.0,9.0,70,0.00,,---,0.00,VWS V14.01,2013-03-22 00:11:00,
2013-03-21 20:16:00,26.3,18.2,30.04,NW,326,3.0,9.0,71,0.00,,---,0.00,VWS V14.01,2013-03-22 00:16:00,
2013-03-21 20:21:00,26.3,18.5,30.04,NNW,330,3.0,9.0,72,0.00,,---,0.00,VWS V14.01,2013-03-22 00:21:00,
2013-03-21 20:26:00,26.2,18.4,30.04,NNW,334,5.0,9.0,72,0.00,,---,0.00,VWS V14.01,2013-03-22 00:26:00,
2013-03-21 20:30:00,26.1,18.6,30.04,North,7,3.0,9.0,73,0.00,,---,0.00,VWS V14.01,2013-03-22 00:30:00,
2013-03-21 20:31:00,26.1,18.6,30.04,NNW,339,4.0,5.0,73,0.00,,---,0.00,VWS V14.01,2013-03-22 00:31:00,
2013-03-21 20:36:00,26.1,18.6,30.04,NNW,332,1.0,5.0,73,0.00,,---,0.00,VWS V14.01,2013-03-22 00:36:00,
2013-03-21 20:41:00,25.8,18.4,30.04,NW,322,1.0,5.0,73,0.00,,---,0.00,VWS V14.01,2013-03-22 00:41:00,
2013-03-21 20:46:00,25.7,18.3,30.04,NW,308,0.0,5.0,73,0.00,,---,0.00,VWS V14.01,2013-03-22 00:46:00,
2013-03-21 20:51:00,25.5,18.1,30.04,NW,308,0.0,5.0,73,0.00,,---,0.00,VWS V14.01,2013-03-22 00:51:00,
2013-03-21 21:00:00,24.8,17.7,30.04,NW,308,0.0,5.0,74,0.00,,---,0.00,VWS V14.01,2013-03-22 01:00:00,
2013-03-21 21:06:00,24.2,17.7,30.04,NW,308,0.0,0.0,76,0.00,,---,0.00,VWS V14.01,2013-03-22 01:06:00,
2013-03-21 21:11:00,23.7,17.6,30.04,NW,308,0.0,0.0,77,0.00,,---,0.00,VWS V14.01,2013-03-22 01:11:00,
2013-03-21 21:16:00,23.4,17.6,30.04,NW,307,0.0,0.0,78,0.00,,---,0.00,VWS V14.01,2013-03-22 01:16:00,
2013-03-21 21:21:00,23.3,17.8,30.04,NW,308,0.0,0.0,79,0.00,,---,0.00,VWS V14.01,2013-03-22 01:21:00,
2013-03-21 21:26:00,23.3,18.1,30.05,NW,307,0.0,0.0,80,0.00,,---,0.00,VWS V14.01,2013-03-22 01:26:00,
2013-03-21 21:30:00,23.2,18.0,30.05,NW,308,0.0,0.0,80,0.00,,---,0.00,VWS V14.01,2013-03-22 01:30:00,
2013-03-21 21:31:00,23.1,17.9,30.05,NW,307,0.0,0.0,80,0.00,,---,0.00,VWS V14.01,2013-03-22 01:31:00,
2013-03-21 21:36:00,22.8,17.9,30.05,NW,304,0.0,0.0,81,0.00,,---,0.00,VWS V14.01,2013-03-22 01:36:00,
2013-03-21 21:41:00,22.6,17.9,30.05,WNW,303,0.0,0.0,82,0.00,,---,0.00,VWS V14.01,2013-03-22 01:41:00,
2013-03-21 21:46:00,22.6,17.9,30.05,WNW,302,0.0,0.0,82,0.00,,---,0.00,VWS V14.01,2013-03-22 01:46:00,
2013-03-21 21:51:00,22.4,17.5,30.05,WNW,302,0.0,0.0,81,0.00,,---,0.00,VWS V14.01,2013-03-22 01:51:00,
2013-03-21 21:56:00,22.2,17.5,30.05,WNW,301,0.0,0.0,82,0.00,,---,0.00,VWS V14.01,2013-03-22 01:56:00,
2013-03-21 22:00:00,22.1,17.7,30.05,WNW,301,0.0,0.0,83,0.00,,---,0.00,VWS V14.01,2013-03-22 02:00:00,
2013-03-21 22:01:00,22.0,17.6,30.05,WNW,301,0.0,0.0,83,0.00,,---,0.00,VWS V14.01,2013-03-22 02:01:00,
2013-03-21 22:06:00,21.9,17.5,30.05,WNW,296,0.0,0.0,83,0.00,,---,0.00,VWS V14.01,2013-03-22 02:06:00,
2013-03-21 22:11:00,21.7,17.3,30.05,WNW,295,0.0,0.0,83,0.00,,---,0.00,VWS V14.01,2013-03-22 02:11:00,
2013-03-21 22:16:00,21.8,17.4,30.05,SE,135,0.0,0.0,83,0.00,,---,0.00,VWS V14.01,2013-03-22 02:16:00,
2013-03-21 22:30:00,21.5,17.4,30.05,SE,135,0.0,0.0,84,0.00,,---,0.00,VWS V14.01,2013-03-22 02:30:00,
2013-03-21 22:37:00,21.5,17.7,30.06,SE,135,0.0,0.0,85,0.00,,---,0.00,VWS V14.01,2013-03-22 02:37:00,
2013-03-21 22:42:00,21.5,17.7,30.06,SE,135,0.0,0.0,85,0.00,,---,0.00,VWS V14.01,2013-03-22 02:42:00,
2013-03-21 23:00:00,21.3,17.8,30.06,North,0,0.0,0.0,86,0.00,,---,0.00,VWS V14.01,2013-03-22 03:00:00,
2013-03-21 23:30:00,20.8,17.8,30.06,North,0,0.0,0.0,88,0.00,,---,0.00,VWS V14.01,2013-03-22 03:30:00,